Regional Weather Roundup
Issued by NWS

Home | Current Version | Previous Version | Text Only | Print | Product List | Glossary Off
Versions: 1 2 3 4 5 6 7 8 9 10 11 12 13 14 15 16 17 18 19 20 21 22 23 24 25 26 27 28 29 30 31 32 33 34 35 36 37 38 39 40 41 42 43 44 45 46 47 48 49 50

000
ASUS43 KLMK 270802
RWRKY
KENTUCKY REGIONAL WEATHER ROUNDUP
NATIONAL WEATHER SERVICE LOUISVILLE KY
400 AM EDT THU AUG 27 2015

NOTE "FAIR" INDICATES FEW OR NO CLOUDS BELOW 12,000 FEET
WITH NO SIGNIFICANT WEATHER AND/OR OBSTRUCTIONS TO VISIBILITY.

KYZ001>023-026-027-061>063-070>075-270900-
WESTERN AND SOUTH CENTRAL KENTUCKY

CITY           SKY/WX    TMP DP  RH WIND       PRES   REMARKS
PADUCAH        CLEAR     57  54  89 CALM      30.12R
HENDERSON      CLEAR     61  55  82 CALM      30.12S
OWENSBORO      MOCLDY    62  59  90 CALM      30.12S
HOPKINSVILLE   CLEAR     58  54  86 CALM      30.10S
BOWLING GREEN  CLEAR     57  54  89 CALM      30.11S
GLASGOW        NOT AVBL
$$

KYZ024-025-028>034-038-045-046-053-270900-
NORTH CENTRAL KENTUCKY

CITY           SKY/WX    TMP DP  RH WIND       PRES   REMARKS
LOUISVILLE/SDF PTCLDY    64  56  75 CALM      30.13R
LOUISVILLE/LOU MOCLDY    61  56  83 NW3       30.14R
FORT KNOX      CLEAR     56  54  94 CALM      30.11S
$$

KYZ035>037-039>044-047>052-055>060-089>105-270900-
NORTHEAST KENTUCKY

CITY           SKY/WX    TMP DP  RH WIND       PRES   REMARKS
LEXINGTON      CLOUDY    59  54  83 CALM      30.14S
COVINGTON      CLOUDY    64  56  75 E5        30.14F
FRANKFORT      CLOUDY    61  55  81 NE5       30.13S
$$

KYZ054-064>069-076>088-106>120-270900-
SOUTHEAST KENTUCKY

CITY           SKY/WX    TMP DP  RH WIND       PRES   REMARKS
JACKSON        CLEAR     58  54  86 CALM      30.14S
LONDON         CLEAR     58  52  80 N6        30.12F
SOMERSET       NOT AVBL
MIDDLESBORO    CLEAR     54  54  99 CALM      30.12S
MONTICELLO     SUNNY     53  53 100 CALM      30.14F
$$




USA.gov is the U.S. government's official web portal to all federal, state and local government web resources and services.